DW0967 Weather Reports


Display with metric or nautical units.
time (UTC)temp
F
wind
direction
speed
MPH
gust
MPH
rain 1hr
in
rain 24hr
in
rain mn
in
humidity
%
barometer
mb
20260505021703 53 5 8.0 17.0 0.00 0.00 0.00 67 1012.4
20260505021203 53 43 7.0 14.0 0.00 0.00 0.00 69 1012.3
20260505020204 53 66 0.0 0.0 0.00 0.00 0.00 68 1012.0
20260505010704 53 131 1.0 3.0 0.00 0.00 0.00 68 1011.9
20260505004704 53 179 3.0 8.0 0.00 0.00 0.00 70 1011.9
20260505004203 53 170 4.0 8.0 0.00 0.00 0.00 69 1012.0
20260505003703 53 156 6.0 12.0 0.00 0.00 0.00 68 1012.0
20260505003204 54 155 9.0 16.0 0.00 0.00 0.00 66 1012.0
20260505001704 58 229 2.0 5.0 0.00 0.00 0.00 53 1012.3
20260505000703 59 278 3.0 6.0 0.00 0.00 0.00 46 1012.1
20260505000204 59 302 5.0 12.0 0.00 0.00 0.00 46 1011.9
20260504234704 59 336 7.0 10.0 0.00 0.00 0.00 46 1011.6
20260504234209 59 0 7.0 20.0 0.00 0.00 0.00 46 1011.4
20260504230204 60 348 14.0 23.0 0.00 0.00 0.00 45 1011.1
20260504224704 62 344 12.0 23.0 0.00 0.00 0.00 41 1011.1
20260504223204 60 4 12.0 21.0 0.00 0.00 0.00 44 1011.3
20260504221204 60 2 11.0 18.0 0.00 0.00 0.00 41 1011.2
20260504220704 61 356 16.0 24.0 0.00 0.00 0.00 40 1011.1
20260504220203 61 0 14.0 24.0 0.00 0.00 0.00 40 1010.8
20260504211704 67 124 3.0 7.0 0.00 0.00 0.00 31 1009.8
20260504203704 67 90 2.0 5.0 0.00 0.00 0.00 33 1010.7
20260504201704 63 39 9.0 17.0 0.00 0.00 0.00 40 1011.2
20260504200704 62 13 6.0 10.0 0.00 0.00 0.00 41 1011.5
20260504200204 62 315 9.0 13.0 0.00 0.00 0.00 41 1011.6
20260504194703 61 90 4.0 10.0 0.00 0.00 0.00 45 1011.1
20260504193204 62 60 3.0 9.0 0.00 0.00 0.00 40 1011.3
20260504191704 63 161 3.0 7.0 0.00 0.00 0.00 39 1011.8
20260504190704 62 204 4.0 9.0 0.00 0.00 0.00 37 1011.4
20260504184704 65 129 5.0 9.0 0.00 0.00 0.00 27 1010.4
20260504183704 66 58 5.0 10.0 0.00 0.00 0.00 27 1010.3
20260504180703 67 40 6.0 9.0 0.00 0.00 0.00 27 1010.1
20260504171704 69 297 6.0 12.0 0.00 0.00 0.00 26 1011.0
20260504150204 61 345 5.0 12.0 0.00 0.00 0.00 30 1012.0
20260504141203 58 319 6.0 10.0 0.00 0.00 0.00 30 1012.1
20260504130204 54 293 2.0 5.0 0.00 0.00 0.00 32 1011.7
20260504110704 50 259 1.0 3.0 0.00 0.00 0.00 36 1011.7
20260504100204 48 226 1.0 2.0 0.00 0.00 0.00 40 1012.1
20260504080704 52 250 3.0 5.0 0.00 0.00 0.00 37 1012.9
20260504050204 60 269 5.0 9.0 0.00 0.00 0.00 30 1013.7
20260504044204 60 308 3.0 5.0 0.00 0.00 0.00 31 1013.7
20260504043704 60 293 3.0 7.0 0.00 0.00 0.00 31 1013.8
20260504040204 61 272 3.0 8.0 0.00 0.00 0.00 32 1014.1
20260504034704 61 262 3.0 7.0 0.00 0.00 0.00 31 1014.2
20260504034204 61 263 3.0 6.0 0.00 0.00 0.00 30 1014.2
20260504031704 62 301 3.0 10.0 0.00 0.00 0.00 30 1014.2
20260504030704 61 259 3.0 5.0 0.00 0.00 0.00 31 1014.2
20260504030204 61 258 2.0 6.0 0.00 0.00 0.00 31 1014.2
20260504024704 60 199 2.0 6.0 0.00 0.00 0.00 34 1014.0
20260504024204 60 208 2.0 3.0 0.00 0.00 0.00 34 1014.0
20260504023704 60 168 2.0 3.0 0.00 0.00 0.00 35 1014.1
20260504023204 60 145 1.0 3.0 0.00 0.00 0.00 35 1014.0